2017-008M

Last updated on Tue Feb 28 2017 00:15:03 GMT+0000 (Coordinated Universal Time)

1 41959U 17008M 17058.63591018 .00003143 00000-0 14330-3 0 9993 2 41959 97.5089 120.2375 0008696 208.5388 151.5390 15.21364651 1718

Satellite not in orbit

2017-008M